User: anonymous   Login
Location: Unspecified
(0.0000°N, 0.0000°E)
Time: 00:14:00
(UTC+00:00)
Language:

HESSI - Orbit

View from above orbital plane
View from above orbital plane
View from above satellite
View from above satellite

Ground track
Ground track

The orbit data is extracted from the following two-line orbital elements,

1 27370U 02004A   18112.61620325 +.00002799 +00000-0 +98626-4 0  9995
2 27370 038.0332 320.3165 0011980 026.4636 333.6744 15.30033565893658
Epoch (UTC): 22 April 2018 14:47:19
Eccentricity: 0.0011980
inclination: 38.0332°
perigee height: 467 km
apogee height: 484 km
right ascension of ascending node: 320.3165°
argument of perigee: 26.4636°
revolutions per day: 15.30033565
mean anomaly at epoch: 333.6744°
orbit number at epoch: 89365

The dashed part of the orbit path shows where the satellite is in the earth's shadow,  

DLR